Starlink 31451

operational
NORAD ID: 59366 Int'l Des: 2024-060 Owner: SPXS Country: US Constellation: starlink
LEOCIRCULAR

关于 Starlink 31451

正在加载描述...

实时位置

正在加载3D地球...

即将过境

高度历史

Altitude vs Time

uPlot chart will show altitude changes over time

两行轨道根数

1 59366U 24060U 25353.30953242 -.00002258 00000-0 -72579-4 0 9990
2 59366 43.0049 353.4640 0000750 250.7620 109.3151 15.27569935 97772
Epoch: Dec 19, 2025 • Age: 12 hours

当前状态

高度 488.7 km
速度 7.62 km/s
星下点 -24.06°S, 63.9°W
发射日期 Mar 31, 2024
运行时间 1.7 years
类型 internet

技术详情

分类 Payload
质量 730.00 kg
干质量 700.00 kg
总质量 730.00 kg
长度 0.30 m
直径 4.10 m
跨度 29.00 m
形状 Box + pan
制造商 SPXS
平台类型 Starlink V2M
阶段状态 In Orbit
所有者/国家 SPXS/US

大型星座

Loading constellations...